When you browse on this site, cookies collect data to enhance your experience and personalize the content and advertising you see.
Visit our Privacy Policy to learn more. By continuing to use the site, you agree to this use of cookies and data.
  • In Sweden
  • List of Countries
  • For 7 days
  • Water Temperature
  • Weather Map
  • Weather Widgets
  • user-avatar
    Login

    Hourly Weather La Paz

    Today, 23 February, Sunday

    Time Temperature Precipitation Wind Pressure Humidity
    00:00 +23°C° 0 mm 1 mps 760 mmHg 52%
    01:00 +23°C° 0 mm 1 mps 760 mmHg 53%
    02:00 +22°C° 0 mm 1 mps 760 mmHg 55%
    03:00 +22°C° 0 mm 1 mps 760 mmHg 55%
    04:00 +22°C° 0 mm 1 mps 760 mmHg 56%
    05:00 +21°C° 0 mm 1 mps 760 mmHg 59%
    06:00 +21°C° 0 mm 2 mps 761 mmHg 59%
    07:00 +23°C° 0 mm 2 mps 761 mmHg 58%
    08:00 +24°C° 0 mm 3 mps 762 mmHg 58%
    09:00 +23°C° 0 mm 4 mps 762 mmHg 57%
    10:00 +25°C° 0 mm 5 mps 763 mmHg 55%
    11:00 +26°C° 0 mm 6 mps 763 mmHg 54%
    12:00 +26°C° 0 mm 6 mps 762 mmHg 52%
    13:00 +26°C° 0 mm 7 mps 762 mmHg 51%
    14:00 +26°C° 0 mm 7 mps 761 mmHg 49%
    15:00 +24°C° 0 mm 7 mps 761 mmHg 51%
    16:00 +23°C° 0 mm 7 mps 760 mmHg 53%
    17:00 +22°C° 0 mm 7 mps 760 mmHg 55%
    18:00 +21°C° 0 mm 6 mps 761 mmHg 59%
    19:00 +20°C° 0 mm 6 mps 761 mmHg 63%
    20:00 +19°C° 0 mm 6 mps 761 mmHg 67%
    21:00 +19°C° 0 mm 5 mps 761 mmHg 65%
    22:00 +19°C° 0 mm 5 mps 761 mmHg 62%
    23:00 +19°C° 0 mm 4 mps 761 mmHg 60%

    Tomorrow, 24 February, Monday

    Time Temperature Precipitation Wind Pressure Humidity
    00:00 +19°C° 0 mm 5 mps 761 mmHg 61%
    01:00 +19°C° 0 mm 5 mps 760 mmHg 61%
    02:00 +17°C° 0 mm 5 mps 760 mmHg 61%
    03:00 +17°C° 0 mm 6 mps 760 mmHg 63%
    04:00 +17°C° 0 mm 6 mps 759 mmHg 65%
    05:00 +17°C° 0 mm 7 mps 759 mmHg 66%
    06:00 +18°C° 0 mm 7 mps 760 mmHg 66%
    07:00 +18°C° 0 mm 7 mps 760 mmHg 65%
    08:00 +18°C° 0 mm 7 mps 760 mmHg 64%
    09:00 +21°C° 0 mm 7 mps 760 mmHg 58%
    10:00 +22°C° 0 mm 7 mps 760 mmHg 53%
    11:00 +23°C° 0 mm 7 mps 760 mmHg 47%
    12:00 +23°C° 0 mm 7 mps 759 mmHg 46%
    13:00 +24°C° 0 mm 7 mps 759 mmHg 44%
    14:00 +24°C° 0 mm 7 mps 758 mmHg 43%
    15:00 +23°C° 0 mm 7 mps 758 mmHg 45%
    16:00 +23°C° 0 mm 7 mps 758 mmHg 47%
    17:00 +22°C° 0 mm 6 mps 757 mmHg 49%
    18:00 +21°C° 0 mm 6 mps 758 mmHg 54%
    19:00 +20°C° 0 mm 5 mps 758 mmHg 60%
    20:00 +19°C° 0 mm 5 mps 758 mmHg 65%
    21:00 +19°C° 0 mm 4 mps 758 mmHg 66%
    22:00 +19°C° 0 mm 4 mps 758 mmHg 67%
    23:00 +18°C° 0 mm 4 mps 758 mmHg 68%

    Day after tomorrow, 25 February, Tuesday

    Time Temperature Precipitation Wind Pressure Humidity
    00:00 +18°C° 0 mm 4 mps 758 mmHg 68%
    01:00 +18°C° 0 mm 3 mps 758 mmHg 68%
    02:00 +17°C° 0 mm 3 mps 757 mmHg 69%
    03:00 +17°C° 0 mm 3 mps 757 mmHg 69%
    04:00 +17°C° 0 mm 4 mps 757 mmHg 69%
    05:00 +17°C° 0 mm 4 mps 757 mmHg 70%
    06:00 +18°C° 0 mm 4 mps 757 mmHg 67%
    07:00 +19°C° 0 mm 4 mps 758 mmHg 65%
    08:00 +20°C° 0 mm 4 mps 758 mmHg 62%
    09:00 +22°C° 0 mm 5 mps 758 mmHg 55%
    10:00 +23°C° 0 mm 6 mps 759 mmHg 49%
    11:00 +24°C° 0 mm 7 mps 759 mmHg 42%
    12:00 +26°C° 0 mm 7 mps 758 mmHg 39%
    13:00 +26°C° 0 mm 8 mps 758 mmHg 37%
    14:00 +27°C° 0 mm 8 mps 758 mmHg 35%
    15:00 +26°C° 0 mm 8 mps 757 mmHg 37%
    16:00 +24°C° 0 mm 7 mps 757 mmHg 40%
    17:00 +24°C° 0 mm 7 mps 756 mmHg 42%
    18:00 +22°C° 0 mm 6 mps 757 mmHg 50%
    19:00 +21°C° 0 mm 5 mps 757 mmHg 58%
    20:00 +19°C° 0 mm 4 mps 757 mmHg 65%
    21:00 +19°C° 0 mm 4 mps 758 mmHg 64%
    22:00 +19°C° 0 mm 4 mps 758 mmHg 63%
    23:00 +19°C° 0 mm 3 mps 758 mmHg 62%

    26 February, Wednesday

    Time Temperature Precipitation Wind Pressure Humidity
    00:00 +19°C° 0 mm 3 mps 758 mmHg 62%
    01:00 +18°C° 0 mm 3 mps 757 mmHg 62%
    02:00 +18°C° 0 mm 3 mps 757 mmHg 61%
    03:00 +18°C° 0 mm 3 mps 757 mmHg 63%
    04:00 +18°C° 0 mm 4 mps 757 mmHg 64%
    05:00 +18°C° 0 mm 4 mps 757 mmHg 65%
    06:00 +19°C° 0 mm 4 mps 757 mmHg 65%
    07:00 +19°C° 0 mm 4 mps 758 mmHg 64%
    08:00 +20°C° 0 mm 5 mps 758 mmHg 63%
    09:00 +22°C° 0 mm 5 mps 759 mmHg 57%
    10:00 +23°C° 0 mm 6 mps 759 mmHg 51%
    11:00 +26°C° 0 mm 6 mps 759 mmHg 45%
    12:00 +26°C° 0 mm 7 mps 759 mmHg 44%
    13:00 +26°C° 0 mm 7 mps 758 mmHg 43%
    14:00 +26°C° 0 mm 7 mps 758 mmHg 42%
    15:00 +26°C° 0 mm 7 mps 758 mmHg 44%
    16:00 +24°C° 0 mm 7 mps 757 mmHg 47%
    17:00 +23°C° 0 mm 7 mps 757 mmHg 49%
    18:00 +22°C° 0 mm 6 mps 757 mmHg 54%
    19:00 +20°C° 0 mm 6 mps 757 mmHg 60%
    20:00 +19°C° 0 mm 5 mps 758 mmHg 65%
    21:00 +19°C° 0 mm 5 mps 758 mmHg 65%
    22:00 +19°C° 0 mm 5 mps 758 mmHg 65%
    23:00 +19°C° 0 mm 5 mps 758 mmHg 66%

    27 February, Thursday

    Time Temperature Precipitation Wind Pressure Humidity
    00:00 +19°C° 0 mm 5 mps 758 mmHg 67%
    01:00 +17°C° 0 mm 5 mps 758 mmHg 68%
    02:00 +18°C° 0 mm 4 mps 758 mmHg 69%
    03:00 +18°C° 0 mm 4 mps 758 mmHg 70%
    04:00 +18°C° 0 mm 4 mps 758 mmHg 71%
    05:00 +17°C° 0 mm 4 mps 758 mmHg 72%
    06:00 +18°C° 0 mm 4 mps 759 mmHg 67%
    07:00 +19°C° 0 mm 4 mps 759 mmHg 63%
    08:00 +20°C° 0 mm 3 mps 760 mmHg 58%
    09:00 +22°C° 0 mm 4 mps 760 mmHg 50%
    10:00 +23°C° 0 mm 5 mps 760 mmHg 42%
    11:00 +26°C° 0 mm 6 mps 761 mmHg 34%
    12:00 +26°C° 0 mm 6 mps 760 mmHg 35%
    13:00 +26°C° 0 mm 6 mps 760 mmHg 37%
    14:00 +27°C° 0 mm 6 mps 759 mmHg 39%
    15:00 +26°C° 0 mm 6 mps 759 mmHg 42%
    16:00 +25°C° 0 mm 5 mps 759 mmHg 46%
    17:00 +25°C° 0 mm 5 mps 759 mmHg 49%
    18:00 +22°C° 0 mm 4 mps 760 mmHg 55%
    19:00 +21°C° 0 mm 2 mps 760 mmHg 61%
    20:00 +21°C° 0 mm 1 mps 760 mmHg 67%
    21:00 +20°C° 0 mm 1 mps 760 mmHg 69%
    22:00 +20°C° 0 mm 1 mps 761 mmHg 72%
    23:00 +19°C° 0 mm 1 mps 761 mmHg 75%

    28 February, Friday

    Time Temperature Precipitation Wind Pressure Humidity
    00:00 +19°C° 0 mm 1 mps 761 mmHg 76%
    01:00 +18°C° 0 mm 1 mps 760 mmHg 77%
    02:00 +18°C° 0 mm 1 mps 760 mmHg 78%
    03:00 +18°C° 0 mm 1 mps 760 mmHg 75%
    04:00 +18°C° 0 mm 1 mps 760 mmHg 72%
    05:00 +17°C° 0 mm 2 mps 760 mmHg 69%
    06:00 +18°C° 0 mm 2 mps 760 mmHg 65%
    07:00 +19°C° 0 mm 2 mps 761 mmHg 60%
    08:00 +21°C° 0 mm 2 mps 761 mmHg 55%
    09:00 +22°C° 0 mm 3 mps 762 mmHg 49%
    10:00 +25°C° 0 mm 3 mps 762 mmHg 43%
    11:00 +26°C° 0 mm 4 mps 762 mmHg 37%
    12:00 +27°C° 0 mm 4 mps 762 mmHg 34%
    13:00 +27°C° 0 mm 5 mps 761 mmHg 32%
    14:00 +28°C° 0 mm 5 mps 761 mmHg 30%
    15:00 +27°C° 0 mm 5 mps 760 mmHg 30%
    16:00 +27°C° 0 mm 4 mps 760 mmHg 30%
    17:00 +26°C° 0 mm 4 mps 760 mmHg 31%
    18:00 +25°C° 0 mm 3 mps 760 mmHg 36%
    19:00 +23°C° 0 mm 2 mps 760 mmHg 40%
    20:00 +21°C° 0 mm 2 mps 761 mmHg 45%
    21:00 +22°C° 0 mm 1 mps 761 mmHg 46%
    22:00 +21°C° 0 mm 1 mps 761 mmHg 47%
    23:00 +21°C° 0 mm 1 mps 761 mmHg 48%
    Show more